Regional Weather Roundup
Issued by NWS Charleston, WV

Home | Current Version | Previous Version | Text Only | Print | Product List | Glossary On
Versions: 1 2 3 4 5 6 7 8 9 10 11 12 13 14 15 16 17 18 19 20 21 22 23 24 25 26 27 28 29 30 31 32 33 34 35 36 37 38 39 40 41 42 43 44 45 46 47 48 49 50
000
ASUS41 KRLX 260810
RWRRLX
West Virginia Regional Weather Roundup
National Weather Service Charleston WV
400 AM EDT TUE MAY 26 2015

Note: "fair" indicates few or no clouds below 12,000 feet with no
significant weather and/or obstructions to visibility.

WVZ003-260900-
Northern Panhandle of West Virginia

CITY           SKY/WX    TMP DP  RH WIND       PRES   REMARKS
WHEELING       NOT AVBL
$$

WVZ009-260900-
Northwest West Virginia

CITY           SKY/WX    TMP DP  RH WIND       PRES   REMARKS
PARKERSBURG    CLOUDY    66  62  87 SE6       30.17F
$$

WVZ006-260900-
Western West Virginia

CITY           SKY/WX    TMP DP  RH WIND       PRES   REMARKS
HUNTINGTON     CLOUDY    66  65  96 CALM      30.15F
$$

WVZ015-260900-
West Central West Virginia

CITY           SKY/WX    TMP DP  RH WIND       PRES   REMARKS
CHARLESTON     MOCLDY    65  63  93 CALM      30.16S
$$

WVZ022-031-260900-
North Central West Virginia

CITY           SKY/WX    TMP DP  RH WIND       PRES   REMARKS
CLARKSBURG     PTCLDY    63  59  87 CALM      30.18S
MORGANTOWN     MOCLDY    66  58  75 CALM      30.19S
$$

WVZ025-035-042-045-260900-
Southern West Virginia

CITY           SKY/WX    TMP DP  RH WIND       PRES   REMARKS
BECKLEY        PTCLDY    64  55  72 SE7       30.26S
LOGAN          CLOUDY    72  59  64 CALM      30.17F
BLUEFIELD      CLOUDY    67  56  67 CALM      30.29R
LEWISBURG      PTCLDY    58  54  89 CALM      30.28R
$$

WVZ047-260900-
Northern Mountains of West Virginia

CITY           SKY/WX    TMP DP  RH WIND       PRES   REMARKS
ELKINS         PTCLDY    57  54  89 CALM      30.25R
$$

WVZ052-260900-
Eastern Panhandle of West Virginia

CITY           SKY/WX    TMP DP  RH WIND       PRES   REMARKS
MARTINSBURG    CLEAR     61  56  83 CALM      30.18S
PETERSBURG     MOCLDY    61  56  84 W3        30.21S
$$



USA.gov is the U.S. government's official web portal to all federal, state and local government web resources and services.